Zurück zum Katalog

COSMOS 871

AktivNavigationLEO
NORAD 9588·PAYLOAD·🇷🇺 Russia

Gestartet Dec 7, 1976 von Plesetsk Cosmodrome

Loading…

Nächste Überflüge (nächste 24 Stunden)

TLE

AktuellSource: Space-Track

Epoche: Sep 14, 2026, 14:26 UTC

1 09588U 76118A   26257.60139586  .00000002  00000-0  11287-3 0  9997
2 09588  74.0316 310.4446 0030101 207.9359 306.8152 12.55776735281481

Verfolge COSMOS 871 in Echtzeit mit AllMySat

Download on the App Store